Change the Weather History Date:

Friday, March 23, 2012

  Actual Average Record
Temperature  
Mean Temperature 60 °F 31 °F  
Max Temperature 68 °F 40 °F 80 °F (1910)
Min Temperature 51 °F 23 °F -16 °F (1965)
Degree Days  
Heating Degree Days 5 34  
Month to date heating degree days 570 903  
Since 1 July heating degree days 5997 7581  
Cooling Degree Days 0 0  
Month to date cooling degree days 6 0  
Year to date cooling degree days 6 0  
Growing Degree Days 10 (Base 50)    
Moisture  
Dew Point 54 °F    
Average Humidity 78    
Maximum Humidity 93    
Minimum Humidity 63    
Precipitation  
Precipitation 0.01 in 0.05 in 0.90 in (2009)
Month to date precipitation 0.46 0.96  
Year to date precipitation 1.99 2.27  
Snow  
Snow 0.00 in 0.30 in 9.30 in (1994)
Month to date snowfall 2.6 7.6  
Since 1 July snowfall 27.0 45.6  
Snow Depth 0.00 in    
Sea Level Pressure  
Sea Level Pressure 29.91 in    
Wind  
Wind Speed 5 mph (ESE)    
Max Wind Speed 12 mph    
Max Gust Speed 24 mph    
Visibility 5 miles    
Events Fog , Rain    
T = Trace of Precipitation, MM = Missing Value Source: NWS Daily Summary

Daily Weather History Graph

Daily Weather History Graph

Search for Another Location

Airport or City:

Trip Planner

Search our weather history database for the weather conditions in past years. The results will help you decide how hot, cold, wet, or windy it might be!

Date:

Astronomy

Mar. 23, 2012 Rise Set
Actual Time 7:23 AM CDT 7:44 PM CDT
Civil Twilight 6:52 AM CDT 8:15 PM CDT
Nautical Twilight 6:17 AM CDT 8:51 PM CDT
Astronomical Twilight 5:39 AM CDT 9:28 PM CDT
Moon 7:25 AM CDT (3/23) 9:17 PM CDT (3/23)
Length of Visible Light 13h 22m
Length of Day
12h 21m
New Moon, 1% of the Moon is Illuminated
Mar 23
New Moon
Mar 30
First Quarter
Apr 6
Full
Apr 13
Last Quarter
Apr 21
New

Hourly Weather History & Observations

Time (CDT) Temp. Dew Point Humidity Pressure Visibility Wind Dir Wind Speed Gust Speed Precip Events Conditions
12:45 AM 57.2 °F 53.6 °F 88% 29.93 in 10.0 mi East 8.1 mph - N/A   Overcast
12:53 AM 57.9 °F 54.0 °F 87% 29.94 in 10.0 mi East 6.9 mph - N/A   Overcast
1:53 AM 57.0 °F 54.0 °F 89% 29.92 in 4.0 mi East 6.9 mph - 0.00 in Rain Light Rain
2:53 AM 55.9 °F 53.1 °F 90% 29.92 in 7.0 mi East 5.8 mph - 0.00 in   Overcast
3:53 AM 55.9 °F 52.0 °F 87% 29.92 in 7.0 mi ESE 10.4 mph - 0.01 in Rain Light Rain
4:13 AM 55.4 °F 51.8 °F 88% 29.92 in 4.0 mi SE 11.5 mph - 0.00 in Rain Light Rain
4:29 AM 55.4 °F 53.6 °F 94% 29.92 in 2.0 mi SE 6.9 mph - 0.00 in   Overcast
4:53 AM 55.0 °F 53.1 °F 93% 29.92 in 2.5 mi SE 6.9 mph - 0.00 in Rain Light Rain
5:04 AM 55.4 °F 53.6 °F 94% 29.92 in 2.5 mi SE 5.8 mph - 0.00 in   Overcast
5:22 AM 55.4 °F 53.6 °F 94% 29.92 in 1.5 mi SE 5.8 mph - 0.00 in   Overcast
5:53 AM 55.0 °F 53.1 °F 93% 29.92 in 0.8 mi SE 4.6 mph - 0.00 in   Overcast
6:53 AM 55.9 °F 54.0 °F 93% 29.93 in 0.5 mi SSE 4.6 mph - N/A Fog Fog
7:48 AM 55.4 °F 53.6 °F 94% 29.93 in 1.0 mi SSE 6.9 mph - N/A   Overcast
7:53 AM 55.9 °F 54.0 °F 93% 29.94 in 0.8 mi SSE 6.9 mph - N/A   Overcast
8:10 AM 55.4 °F 53.6 °F 94% 29.93 in 0.2 mi South 5.8 mph - N/A Fog Fog
8:53 AM 55.9 °F 54.0 °F 93% 29.94 in 0.2 mi South 6.9 mph - N/A Fog Fog
9:15 AM 55.4 °F 53.6 °F 94% 29.93 in 1.0 mi South 8.1 mph - N/A   Overcast
9:26 AM 55.4 °F 53.6 °F 94% 29.93 in 3.0 mi South 8.1 mph - N/A   Overcast
9:53 AM 55.9 °F 54.0 °F 93% 29.94 in 4.0 mi South 9.2 mph - N/A   Overcast
10:53 AM 57.0 °F 54.0 °F 89% 29.95 in 4.0 mi SSW 6.9 mph - N/A   Overcast
11:51 AM 59.0 °F 55.4 °F 88% 29.94 in 4.0 mi SW 3.5 mph - N/A   Overcast
11:53 AM 59.0 °F 55.9 °F 90% 29.94 in 4.0 mi SW 3.5 mph - N/A   Overcast
12:53 PM 61.0 °F 55.9 °F 83% 29.94 in 7.0 mi Calm Calm - N/A   Overcast
1:38 PM 62.6 °F 55.4 °F 77% 29.92 in 7.0 mi Calm Calm - N/A   Overcast
1:53 PM 64.0 °F 55.9 °F 75% 29.92 in 8.0 mi North 3.5 mph - N/A   Overcast
2:04 PM 64.4 °F 55.4 °F 73% 29.90 in 9.0 mi Calm Calm - N/A   Overcast
2:20 PM 64.4 °F 55.4 °F 73% 29.90 in 5.0 mi Calm Calm - N/A   Haze
2:53 PM 66.0 °F 55.9 °F 70% 29.89 in 7.0 mi Calm Calm - N/A   Mostly Cloudy
3:53 PM 68.0 °F 55.9 °F 65% 29.89 in 10.0 mi North 3.5 mph - N/A   Mostly Cloudy
4:04 PM 66.2 °F 55.4 °F 68% 29.88 in 10.0 mi Calm Calm - N/A   Mostly Cloudy
4:53 PM 68.0 °F 55.9 °F 65% 29.88 in 10.0 mi Calm Calm - N/A   Mostly Cloudy
5:20 PM 68.0 °F 55.4 °F 64% 29.87 in 10.0 mi NNW 5.8 mph - N/A   Overcast
5:53 PM 66.0 °F 57.0 °F 73% 29.88 in 10.0 mi NNW 6.9 mph - 0.00 in Rain Light Rain
6:53 PM 63.0 °F 57.0 °F 81% 29.88 in 10.0 mi North 9.2 mph - 0.00 in   Overcast
7:06 PM 62.6 °F 57.2 °F 82% 29.88 in 10.0 mi North 5.8 mph - N/A   Overcast
7:53 PM 62.1 °F 55.9 °F 80% 29.89 in 10.0 mi North 8.1 mph - N/A   Overcast
8:14 PM 60.8 °F 55.4 °F 82% 29.89 in 7.0 mi NNE 8.1 mph - N/A   Overcast
8:31 PM 60.8 °F 55.4 °F 82% 29.89 in 7.0 mi NNE 8.1 mph - N/A   Overcast
8:53 PM 60.1 °F 55.9 °F 86% 29.90 in 7.0 mi NNE 5.8 mph - N/A   Overcast
9:53 PM 57.9 °F 55.0 °F 90% 29.90 in 8.0 mi NNE 3.5 mph - N/A   Mostly Cloudy
10:53 PM 55.9 °F 54.0 °F 93% 29.90 in 4.0 mi NNE 4.6 mph - N/A   Clear
11:12 PM 55.4 °F 53.6 °F 94% 29.90 in 1.5 mi NNE 3.5 mph - N/A   Clear
11:15 PM 53.6 °F 51.8 °F 94% 29.90 in 0.8 mi Calm Calm - N/A   Mist
11:19 PM 53.6 °F 51.8 °F 94% 29.90 in 0.2 mi Calm Calm - N/A Fog Fog
11:26 PM 55.4 °F 53.6 °F 94% 29.90 in 0.2 mi Calm Calm - N/A Fog Fog
11:53 PM 54.0 °F 52.0 °F 93% 29.90 in 0.2 mi Calm Calm - N/A Fog Fog
11:57 PM 51.8 °F 51.8 °F 100% 29.89 in 0.2 mi Calm Calm - N/A Fog Fog